Time,TemperatureF,DewpointF,PressureIn,WindDirection,WindDirectionDegrees,WindSpeedMPH,WindSpeedGustMPH,Humidity,HourlyPrecipIn,Conditions,Clouds,dailyrainin,SolarRadiationWatts/m^2,SoftwareType,DateUTC
2013-04-24 00:07:00,48.0,44.0,29.99,SSW,198,2.0,-999.0,86,-99.99,,,0.00,0,weatherlink.com 1.10,2013-04-23 23:07:00,
2013-04-24 00:22:00,47.8,45.0,29.98,SSW,194,3.0,-999.0,88,-99.99,,,0.00,0,weatherlink.com 1.10,2013-04-23 23:22:00,
2013-04-24 00:37:00,47.4,44.0,29.97,SSW,209,3.0,-999.0,89,-99.99,,,0.01,0,weatherlink.com 1.10,2013-04-23 23:37:00,
2013-04-24 00:52:00,47.1,45.0,29.97,SW,217,4.0,-999.0,91,-99.99,,,0.01,0,weatherlink.com 1.10,2013-04-23 23:52:00,
2013-04-24 01:07:00,47.0,45.0,29.96,SSW,207,0.0,-999.0,92,-99.99,,,0.02,0,weatherlink.com 1.10,2013-04-24 00:07:00,
2013-04-24 01:22:00,46.9,45.0,29.96,SSW,201,2.0,-999.0,92,-99.99,,,0.02,0,weatherlink.com 1.10,2013-04-24 00:22:00,
2013-04-24 01:37:00,46.8,45.0,29.94,SSW,205,1.0,-999.0,93,-99.99,,,0.02,0,weatherlink.com 1.10,2013-04-24 00:37:00,
2013-04-24 01:52:00,46.9,45.0,29.93,SSW,205,0.0,-999.0,93,-99.99,,,0.02,0,weatherlink.com 1.10,2013-04-24 00:52:00,
2013-04-24 02:07:00,47.1,46.0,29.93,SSW,205,1.0,-999.0,94,-99.99,,,0.02,0,weatherlink.com 1.10,2013-04-24 01:07:00,
2013-04-24 02:22:00,47.2,46.0,29.92,SSW,205,0.0,-999.0,94,-99.99,,,0.03,0,weatherlink.com 1.10,2013-04-24 01:22:00,
2013-04-24 02:38:00,47.3,46.0,29.92,SSW,205,0.0,-999.0,94,-99.99,,,0.06,0,weatherlink.com 1.10,2013-04-24 01:38:00,
2013-04-24 02:53:00,47.2,46.0,29.91,SSW,205,0.0,-999.0,94,-99.99,,,0.09,0,weatherlink.com 1.10,2013-04-24 01:53:00,
2013-04-24 03:08:00,47.3,46.0,29.91,SSW,205,2.0,-999.0,95,-99.99,,,0.13,0,weatherlink.com 1.10,2013-04-24 02:08:00,
2013-04-24 03:23:00,47.4,46.0,29.89,SSE,168,0.0,-999.0,95,-99.99,,,0.19,0,weatherlink.com 1.10,2013-04-24 02:23:00,
2013-04-24 03:38:00,47.4,46.0,29.89,SSE,167,2.0,-999.0,95,-99.99,,,0.20,0,weatherlink.com 1.10,2013-04-24 02:38:00,
2013-04-24 03:53:00,47.7,47.0,29.88,South,174,1.0,-999.0,96,-99.99,,,0.24,0,weatherlink.com 1.10,2013-04-24 02:53:00,
2013-04-24 04:08:00,47.9,47.0,29.87,South,175,1.0,-999.0,96,-99.99,,,0.26,0,weatherlink.com 1.10,2013-04-24 03:08:00,
2013-04-24 04:23:00,48.1,47.0,29.86,South,173,2.0,-999.0,96,-99.99,,,0.28,0,weatherlink.com 1.10,2013-04-24 03:23:00,
2013-04-24 04:53:00,48.6,48.0,29.86,SW,217,5.0,-999.0,96,-99.99,,,0.30,0,weatherlink.com 1.10,2013-04-24 03:53:00,
2013-04-24 05:08:00,48.3,47.0,29.85,SW,215,12.0,-999.0,96,-99.99,,,0.31,0,weatherlink.com 1.10,2013-04-24 04:08:00,
2013-04-24 05:23:00,48.1,47.0,29.85,SSW,198,5.0,-999.0,96,-99.99,,,0.31,0,weatherlink.com 1.10,2013-04-24 04:23:00,
2013-04-24 05:38:00,47.9,47.0,29.85,SW,225,5.0,-999.0,96,-99.99,,,0.31,0,weatherlink.com 1.10,2013-04-24 04:38:00,
2013-04-24 05:53:00,47.9,47.0,29.85,SW,214,8.0,-999.0,97,-99.99,,,0.31,0,weatherlink.com 1.10,2013-04-24 04:53:00,
2013-04-24 06:08:00,48.0,47.0,29.85,SW,225,6.0,-999.0,97,-99.99,,,0.31,0,weatherlink.com 1.10,2013-04-24 05:08:00,
2013-04-24 06:23:00,48.1,47.0,29.85,SW,230,9.0,-999.0,97,-99.99,,,0.31,0,weatherlink.com 1.10,2013-04-24 05:23:00,
2013-04-24 06:38:00,48.4,48.0,29.85,SW,235,4.0,-999.0,97,-99.99,,,0.31,9,weatherlink.com 1.10,2013-04-24 05:38:00,
2013-04-24 06:53:00,48.8,48.0,29.85,SW,215,2.0,-999.0,97,-99.99,,,0.32,11,weatherlink.com 1.10,2013-04-24 05:53:00,
2013-04-24 07:08:00,49.0,48.0,29.84,SSW,198,8.0,-999.0,97,-99.99,,,0.32,28,weatherlink.com 1.10,2013-04-24 06:08:00,
2013-04-24 07:23:00,49.5,49.0,29.85,South,184,2.0,-999.0,97,-99.99,,,0.32,32,weatherlink.com 1.10,2013-04-24 06:23:00,
2013-04-24 07:38:00,50.0,49.0,29.85,SW,215,3.0,-999.0,97,-99.99,,,0.32,67,weatherlink.com 1.10,2013-04-24 06:38:00,
2013-04-24 07:54:00,50.4,50.0,29.86,SSW,212,10.0,-999.0,97,-99.99,,,0.32,56,weatherlink.com 1.10,2013-04-24 06:54:00,
2013-04-24 08:09:00,51.1,50.0,29.86,SW,229,7.0,-999.0,97,-99.99,,,0.32,72,weatherlink.com 1.10,2013-04-24 07:09:00,
2013-04-24 08:24:00,51.3,51.0,29.87,SW,236,12.0,-999.0,97,-99.99,,,0.32,49,weatherlink.com 1.10,2013-04-24 07:24:00,
2013-04-24 08:39:00,50.5,49.0,29.88,WNW,288,10.0,-999.0,96,-99.99,,,0.32,104,weatherlink.com 1.10,2013-04-24 07:39:00,
2013-04-24 08:54:00,49.3,48.0,29.89,WNW,294,12.0,-999.0,96,-99.99,,,0.32,121,weatherlink.com 1.10,2013-04-24 07:54:00,
2013-04-24 09:09:00,48.3,47.0,29.91,WNW,295,20.0,-999.0,96,-99.99,,,0.32,185,weatherlink.com 1.10,2013-04-24 08:09:00,
2013-04-24 09:24:00,47.7,46.0,29.92,WNW,284,9.0,-999.0,95,-99.99,,,0.32,118,weatherlink.com 1.10,2013-04-24 08:24:00,
2013-04-24 09:39:00,47.3,46.0,29.93,WNW,296,7.0,-999.0,95,-99.99,,,0.32,127,weatherlink.com 1.10,2013-04-24 08:39:00,
2013-04-24 09:54:00,47.0,46.0,29.94,WNW,296,16.0,-999.0,95,-99.99,,,0.32,142,weatherlink.com 1.10,2013-04-24 08:54:00,
2013-04-24 10:09:00,46.8,45.0,29.95,West,278,15.0,-999.0,94,-99.99,,,0.32,160,weatherlink.com 1.10,2013-04-24 09:09:00,
2013-04-24 10:24:00,46.5,45.0,29.95,WNW,287,18.0,-999.0,93,-99.99,,,0.32,209,weatherlink.com 1.10,2013-04-24 09:24:00,
2013-04-24 10:39:00,46.9,45.0,29.96,West,279,21.0,-999.0,92,-99.99,,,0.32,246,weatherlink.com 1.10,2013-04-24 09:39:00,
2013-04-24 10:54:00,47.2,45.0,29.98,WNW,286,11.0,-999.0,91,-99.99,,,0.32,265,weatherlink.com 1.10,2013-04-24 09:54:00,
2013-04-24 11:09:00,47.5,45.0,30.00,NW,313,7.0,-999.0,91,-99.99,,,0.32,285,weatherlink.com 1.10,2013-04-24 10:09:00,
2013-04-24 11:24:00,47.9,45.0,30.02,West,277,16.0,-999.0,89,-99.99,,,0.32,248,weatherlink.com 1.10,2013-04-24 10:24:00,
2013-04-24 11:39:00,47.9,44.0,30.03,WNW,297,18.0,-999.0,87,-99.99,,,0.32,264,weatherlink.com 1.10,2013-04-24 10:39:00,
2013-04-24 11:54:00,47.8,45.0,30.03,West,279,8.0,-999.0,89,-99.99,,,0.32,246,weatherlink.com 1.10,2013-04-24 10:54:00,
2013-04-24 12:09:00,49.1,45.0,30.04,WNW,294,11.0,-999.0,86,-99.99,,,0.32,636,weatherlink.com 1.10,2013-04-24 11:09:00,
2013-04-24 12:24:00,49.9,45.0,30.06,West,277,14.0,-999.0,82,-99.99,,,0.32,329,weatherlink.com 1.10,2013-04-24 11:24:00,
2013-04-24 12:39:00,51.0,44.0,30.06,WNW,293,16.0,-999.0,78,-99.99,,,0.32,304,weatherlink.com 1.10,2013-04-24 11:39:00,
2013-04-24 12:54:00,52.0,47.0,30.07,WNW,287,14.0,-999.0,82,-99.99,,,0.32,905,weatherlink.com 1.10,2013-04-24 11:54:00,
2013-04-24 13:09:00,51.5,43.0,30.08,West,275,10.0,-999.0,73,-99.99,,,0.32,870,weatherlink.com 1.10,2013-04-24 12:09:00,
2013-04-24 13:24:00,52.9,44.0,30.09,West,263,9.0,-999.0,73,-99.99,,,0.32,577,weatherlink.com 1.10,2013-04-24 12:24:00,
2013-04-24 13:40:00,53.4,45.0,30.09,WNW,295,16.0,-999.0,72,-99.99,,,0.32,661,weatherlink.com 1.10,2013-04-24 12:40:00,
2013-04-24 13:55:00,52.9,43.0,30.09,WNW,302,11.0,-999.0,69,-99.99,,,0.32,469,weatherlink.com 1.10,2013-04-24 12:55:00,
2013-04-24 14:10:00,53.2,44.0,30.10,WNW,291,10.0,-999.0,71,-99.99,,,0.32,967,weatherlink.com 1.10,2013-04-24 13:10:00,
2013-04-24 14:25:00,54.4,43.0,30.10,NW,304,7.0,-999.0,66,-99.99,,,0.32,281,weatherlink.com 1.10,2013-04-24 13:25:00,
2013-04-24 14:40:00,51.3,41.0,30.10,WNW,294,10.0,-999.0,67,-99.99,,,0.32,241,weatherlink.com 1.10,2013-04-24 13:40:00,
2013-04-24 14:54:00,51.3,41.0,30.11,West,281,7.0,-999.0,67,-99.99,,,0.32,791,weatherlink.com 1.10,2013-04-24 13:54:00,
2013-04-24 15:09:00,54.4,41.0,30.11,WNW,290,16.0,-999.0,61,-99.99,,,0.32,796,weatherlink.com 1.10,2013-04-24 14:09:00,
2013-04-24 15:25:00,53.8,41.0,30.12,WNW,298,6.0,-999.0,62,-99.99,,,0.32,782,weatherlink.com 1.10,2013-04-24 14:25:00,
2013-04-24 15:40:00,54.8,41.0,30.12,West,263,10.0,-999.0,59,-99.99,,,0.32,752,weatherlink.com 1.10,2013-04-24 14:40:00,
2013-04-24 15:55:00,55.1,40.0,30.12,WNW,288,13.0,-999.0,57,-99.99,,,0.32,538,weatherlink.com 1.10,2013-04-24 14:55:00,
2013-04-24 16:10:00,55.3,42.0,30.12,WNW,282,8.0,-999.0,62,-99.99,,,0.32,617,weatherlink.com 1.10,2013-04-24 15:10:00,
2013-04-24 16:25:00,54.7,40.0,30.13,WNW,286,12.0,-999.0,58,-99.99,,,0.32,570,weatherlink.com 1.10,2013-04-24 15:25:00,
2013-04-24 16:40:00,53.5,39.0,30.13,West,274,12.0,-999.0,58,-99.99,,,0.32,432,weatherlink.com 1.10,2013-04-24 15:40:00,
2013-04-24 16:55:00,52.7,37.0,30.13,NW,304,8.0,-999.0,56,-99.99,,,0.32,524,weatherlink.com 1.10,2013-04-24 15:55:00,
2013-04-24 17:10:00,53.8,38.0,30.13,West,271,8.0,-999.0,56,-99.99,,,0.32,482,weatherlink.com 1.10,2013-04-24 16:10:00,
2013-04-24 17:25:00,53.7,38.0,30.13,West,273,12.0,-999.0,56,-99.99,,,0.32,443,weatherlink.com 1.10,2013-04-24 16:25:00,
2013-04-24 17:40:00,53.0,36.0,30.14,WNW,288,13.0,-999.0,53,-99.99,,,0.32,369,weatherlink.com 1.10,2013-04-24 16:40:00,
2013-04-24 17:55:00,51.5,35.0,30.14,West,272,6.0,-999.0,53,-99.99,,,0.32,322,weatherlink.com 1.10,2013-04-24 16:55:00,
2013-04-24 18:10:00,51.5,37.0,30.15,NW,307,8.0,-999.0,58,-99.99,,,0.32,320,weatherlink.com 1.10,2013-04-24 17:10:00,
2013-04-24 18:25:00,52.1,37.0,30.15,WSW,250,7.0,-999.0,57,-99.99,,,0.32,98,weatherlink.com 1.10,2013-04-24 17:25:00,
2013-04-24 18:40:00,50.8,37.0,30.15,WNW,288,8.0,-999.0,59,-99.99,,,0.32,100,weatherlink.com 1.10,2013-04-24 17:40:00,
2013-04-24 18:55:00,51.3,36.0,30.15,WNW,302,10.0,-999.0,57,-99.99,,,0.32,218,weatherlink.com 1.10,2013-04-24 17:55:00,
2013-04-24 19:10:00,50.8,35.0,30.16,WNW,285,7.0,-999.0,56,-99.99,,,0.32,114,weatherlink.com 1.10,2013-04-24 18:10:00,
2013-04-24 19:25:00,48.9,35.0,30.16,WNW,282,5.0,-999.0,60,-99.99,,,0.32,74,weatherlink.com 1.10,2013-04-24 18:25:00,
2013-04-24 19:40:00,48.0,36.0,30.16,West,275,6.0,-999.0,63,-99.99,,,0.32,62,weatherlink.com 1.10,2013-04-24 18:40:00,
2013-04-24 19:55:00,47.2,36.0,30.17,WNW,292,3.0,-999.0,66,-99.99,,,0.32,30,weatherlink.com 1.10,2013-04-24 18:55:00,
2013-04-24 20:10:00,46.1,36.0,30.17,WNW,286,2.0,-999.0,69,-99.99,,,0.32,18,weatherlink.com 1.10,2013-04-24 19:10:00,
2013-04-24 20:25:00,45.4,36.0,30.17,WNW,283,0.0,-999.0,70,-99.99,,,0.32,9,weatherlink.com 1.10,2013-04-24 19:25:00,
2013-04-24 20:40:00,44.8,37.0,30.17,West,279,2.0,-999.0,73,-99.99,,,0.32,0,weatherlink.com 1.10,2013-04-24 19:40:00,
2013-04-24 20:55:00,44.4,37.0,30.17,West,261,1.0,-999.0,75,-99.99,,,0.32,0,weatherlink.com 1.10,2013-04-24 19:55:00,
2013-04-24 21:10:00,44.1,37.0,30.17,West,261,4.0,-999.0,76,-99.99,,,0.32,0,weatherlink.com 1.10,2013-04-24 20:10:00,
2013-04-24 21:25:00,43.7,37.0,30.18,West,261,2.0,-999.0,77,-99.99,,,0.32,0,weatherlink.com 1.10,2013-04-24 20:25:00,
2013-04-24 21:40:00,43.6,37.0,30.18,West,261,2.0,-999.0,77,-99.99,,,0.32,0,weatherlink.com 1.10,2013-04-24 20:40:00,
2013-04-24 21:55:00,43.4,37.0,30.18,West,261,2.0,-999.0,77,-99.99,,,0.32,0,weatherlink.com 1.10,2013-04-24 20:55:00,
2013-04-24 22:10:00,43.3,37.0,30.18,West,261,1.0,-999.0,77,-99.99,,,0.32,0,weatherlink.com 1.10,2013-04-24 21:10:00,
2013-04-24 22:25:00,43.2,37.0,30.17,West,261,0.0,-999.0,78,-99.99,,,0.32,0,weatherlink.com 1.10,2013-04-24 21:25:00,
2013-04-24 22:40:00,43.1,37.0,30.18,West,261,0.0,-999.0,79,-99.99,,,0.32,0,weatherlink.com 1.10,2013-04-24 21:40:00,
2013-04-24 22:55:00,43.1,37.0,30.17,West,261,0.0,-999.0,80,-99.99,,,0.32,0,weatherlink.com 1.10,2013-04-24 21:55:00,
2013-04-24 23:10:00,43.0,38.0,30.17,West,261,0.0,-999.0,81,-99.99,,,0.32,0,weatherlink.com 1.10,2013-04-24 22:10:00,
2013-04-24 23:25:00,43.5,38.0,30.17,West,261,0.0,-999.0,81,-99.99,,,0.32,0,weatherlink.com 1.10,2013-04-24 22:25:00,
2013-04-24 23:40:00,43.6,38.0,30.17,West,261,0.0,-999.0,81,-99.99,,,0.32,0,weatherlink.com 1.10,2013-04-24 22:40:00,
2013-04-24 23:55:00,43.4,38.0,30.17,West,261,0.0,-999.0,82,-99.99,,,0.32,0,weatherlink.com 1.10,2013-04-24 22:55:00,